This demonstration page uses our WeatherBlox Daily Observations layout. Learn more.

Left ArrowRight Arrow

39.51506, -84.39828

Hourly Observations for February 12, 2017

Temp ( °F °C ) Dew Point ( °F °C ) Humidity (%) Winds ( mph kmh ) Pressure ( in mb ) Visibility ( mi km ) Precip ( " mm )
12:53 am 00:53 Cloudy with Light Rain 58 14.4 56 13.3 93 93 SSW 7 11 29.80 1009 4 6 0.05 1.27
1:10 am 01:10 Cloudy with Mist and Fog 58 14.4 57 13.9 97 97 SSW 7 11 29.80 1009 6 10 0.00 0.03
1:21 am 01:21 Cloudy with Mist and Fog 58 14.4 57 13.9 97 97 SSW 8 13 29.80 1009 6 10 0.00 0.03
1:53 am 01:53 Cloudy with Light Rain 58 14.4 57 13.9 97 97 S 9 15 29.77 1008 3 5 0.02 0.51
2:53 am 02:53 Cloudy with Light Rain 59 15 58 14.4 96 96 SSW 12 19 29.75 1007 5 8 0.03 0.76
3:02 am 03:02 Cloudy with Light Rain 59 15 58 14.4 96 96 SSW 10 17 29.77 1008 4 6 0.01 0.25
3:53 am 03:53 Cloudy with Light Rain 59 15 58 14.4 96 96 SW 7 11 29.73 1007 4 6 0.05 1.27
4:11 am 04:11 Cloudy with Rain 59 15 58 14.4 96 96 SW 9 15 29.74 1007 3 4 0.04 1.02
4:19 am 04:19 Cloudy with Light Rain 59 15 58 14.4 96 96 WSW 7 11 29.74 1007 3 5 0.05 1.27
4:53 am 04:53 Cloudy with Mist and Fog 59 15 58 14.4 96 96 WSW 12 19 29.72 1006 6 10 0.05 1.27
5:04 am 05:04 Cloudy with Mist and Fog 59 15 58 14.4 96 96 WSW 13 20 29.74 1007 6 10 0.00 0.00
5:49 am 05:49 Cloudy with Mist and Fog 59 15 57 14 94 94 WSW 9 15 29.74 1007 5 8 0.00 0.00
5:53 am 05:53 Cloudy with Mist and Fog 59 15 58 14.4 96 96 WSW 10 17 29.73 1007 5 8 0.00 0.00
6:03 am 06:03 Cloudy with Mist and Fog 59 15 58 14.4 96 96 WSW 8 13 29.74 1007 5 8 0.00 0.00
6:15 am 06:15 Cloudy with Mist and Fog 59 15 58 14.4 96 96 WSW 10 17 29.74 1007 5 8 0.00 0.00
6:53 am 06:53 Cloudy with Mist and Fog 59 15 58 14.4 96 96 WSW 9 15 29.75 1008 5 8 0.00 0.00
7:31 am 07:31 Cloudy with Mist and Fog 59 15 57 13.9 93 93 WNW 12 19 29.77 1008 6 10 0.00 0.03
7:44 am 07:44 Cloudy with Mist and Fog 52 11.1 50 10 93 93 NW 15 24 29.80 1009 5 8 0.00 0.03
7:53 am 07:53 Cloudy with Mist and Fog 49 9.4 47 8.3 93 93 NW 15 24 29.81 1009 4 6 0.00 0.03
8:28 am 08:28 Cloudy with Mist and Fog 45 7.2 43 6.1 93 93 NW 16 26 29.88 1012 4 6 0.00 0.00
8:39 am 08:39 Cloudy with Mist and Fog 44 6.7 42 5.6 93 93 NW 15 24 29.91 1013 4 6 0.00 0.00
8:53 am 08:53 Cloudy with Mist and Fog 44 6.7 42 5.6 93 93 NW 12 19 29.87 1012 3 4 0.00 0.00
9:03 am 09:03 Cloudy with Mist and Fog 44 6.7 42 5.6 93 93 NW 12 19 29.91 1013 3 4 0.00 0.00
9:13 am 09:13 Cloudy with Mist and Fog 43 6.1 42 5.6 97 97 NW 15 24 29.91 1013 3 4 0.00 0.00
9:37 am 09:37 Cloudy with Mist and Fog 43 6.1 41 5 93 93 NW 14 22 29.94 1014 3 5 0.00 0.00
9:53 am 09:53 Cloudy with Mist and Fog 42 5.6 40 4.4 92 92 NW 12 19 29.91 1013 3 5 0.00 0.00
10:08 am 10:08 Cloudy with Mist and Fog 43 6.1 41 5 93 93 NNW 10 17 29.94 1014 4 6 0.00 0.00
10:53 am 10:53 Cloudy with Mist and Fog 43 6.1 41 5 93 93 NNW 17 28 29.95 1014 5 8 0.00 0.00
11:53 am 11:53 Cloudy with Mist and Fog 44 6.7 42 5.6 93 93 NW 15 24 30.00 1016 4 6 0.00 0.00
12:38 pm 12:38 Cloudy with Mist and Fog 46 7.8 42 5.6 86 86 WNW 9 15 30.03 1017 5 8 0.00 0.00
12:53 pm 12:53 Cloudy with Mist and Fog 47 8.3 43 6.1 86 86 WNW 10 17 29.98 1015 5 8 0.00 0.00
1:44 pm 13:44 Mostly Cloudy 50 10 42 5.6 74 74 WNW 12 19 30.00 1016 8 13 0.00 0.00
1:53 pm 13:53 Partly Cloudy 50 10 42 5.6 74 74 W 13 20 29.98 1015 8 13 0.00 0.00
2:06 pm 14:06 Mostly Cloudy 50 10 41 5 71 71 W 10 17 30.03 1017 9 14 0.00 0.00
2:25 pm 14:25 Cloudy 50 10 40 4.4 68 68 W 16 26 30.03 1017 10 16 0.00 0.00
2:53 pm 14:53 Mostly Cloudy 52 11.1 39 3.9 61 61 WNW 17 28 29.98 1015 10 16 0.00 0.00
3:53 pm 15:53 Mostly Cloudy 53 11.7 35 1.7 51 51 W 20 31 30.01 1016 10 16 0.00 0.00
4:53 pm 16:53 Partly Cloudy 52 11.1 34 1.1 50 50 W 21 33 30.03 1017 10 16 0.00 0.00
5:53 pm 17:53 Partly Cloudy 50 10 30 -1.1 46 46 W 21 33 30.07 1018 10 16 0.00 0.00
6:53 pm 18:53 Mostly Clear 45 7.2 28 -2.2 52 52 WNW 18 30 30.13 1020 10 16 0.00 0.00
7:53 pm 19:53 Clear 43 6.1 25 -3.9 49 49 W 13 20 30.16 1021 10 16 0.00 0.00
8:53 pm 20:53 Clear 41 5 23 -5 49 49 WNW 13 20 30.19 1022 10 16 0.00 0.00
9:53 pm 21:53 Clear 39 3.9 23 -5 53 53 WNW 15 24 30.22 1023 10 16 0.00 0.00
10:53 pm 22:53 Clear 38 3.3 23 -5 55 55 NW 12 19 30.25 1024 10 16 0.00 0.00
11:53 pm 23:53 Clear 36 2.2 22 -5.6 57 57 NW 12 19 30.27 1025 10 16 0.00 0.00

Powered by AerisWeather